Temperature
19 19 19 19 19 19 19 19 19 19 19 19 19 19 19 19 19 19 19 19 19 19 19 19 19 19 19 19 19 19 19 18 18 18 18 18 17 17 17 17 17 17 17
19 19 19 19 19 19 19 19 19 19 19 19 19 19 19 19 19 19 19 19 19 19 19 19 19 19 19 19 19 19 19 19 19 18 18 18 18 18 17 17 17 17 17
19 19 18 18 18 18 18 18 18 18 18 18 18 18 18 19 19 19 19 19 19 19 19 19 19 19 19 19 19 19 19 19 19 19 19 18 18 18 18 18 17 17 17
19 19 18 18 18 18 18 18 18 18 18 18 18 18 18 18 18 19 19 19 19 19 19 19 19 19 19 19 19 19 19 19 19 19 19 19 18 18 18 18 18 18 18
19 18 18 17 17 17 17 17 18 17 17 17 17 18 18 18 18 18 18 19 19 19 19 19 19 19 19 19 19 19 19 19 19 19 19 19 19 19 18 18 18 18 18
19 18 18 17 17 17 17 17 17 17 17 17 17 17 17 18 18 18 18 19 19 19 19 19 19 19 19 19 19 19 19 19 19 19 19 19 19 19 19 19 18 18 18
19 18 18 17 17 16 16 16 16 16 16 16 16 17 17 18 18 19 19 19 19 19 19 19 19 19 19 19 19 19 19 19 19 19 19 19 19 19 19 19 18 18 18
19 18 17 18 17 17 17 16 16 16 16 16 16 16 16 17 19 19 20 19 19 19 19 19 19 19 19 19 19 19 19 19 19 19 19 19 19 19 19 19 19 18 18
18 18 18 18 17 17 16 16 16 15 15 16 15 15 16 17 17 18 19 19 20 20 20 20 19 19 19 19 19 19 19 19 19 19 19 19 19 19 19 19 19 18 18
18 17 17 17 17 17 16 16 16 16 15 15 15 15 15 15 15 16 17 18 19 19 19 20 20 20 19 19 19 18 18 19 19 18 18 18 19 19 19 19 19 18 18
18 17 17 17 17 17 16 16 16 16 15 14 14 14 15 15 15 15 15 17 18 18 19 19 19 19 19 19 19 18 18 18 18 18 18 18 18 18 18 18 18 18 18
17 17 17 17 17 16 16 16 16 16 15 15 14 14 14 14 14 15 15 15 16 17 18 18 19 19 19 19 18 18 18 18 18 18 17 17 17 17 18 18 18 18 18
17 17 17 16 16 16 16 16 16 15 15 14 14 14 14 14 14 14 14 14 15 16 17 17 18 18 18 18 18 18 18 17 17 17 17 17 17 17 17 17 17 17 18
16 16 16 16 16 15 15 15 15 15 14 14 14 14 14 14 14 14 14 14 14 15 16 16 17 17 17 17 17 17 17 17 17 16 16 16 16 16 16 17 17 17 17
15 15 15 15 15 15 15 15 14 14 14 14 14 14 14 14 14 14 14 14 14 14 15 15 16 16 16 16 16 16 16 16 16 15 15 15 15 15 16 16 16 16 17
14 15 15 15 15 15 15 14 14 14 14 14 14 14 14 14 14 14 14 14 14 14 14 14 15 15 15 15 15 15 15 14 14 14 14 14 14 14 15 15 15 16 16
14 14 14 14 14 14 14 14 14 14 14 14 14 13 13 13 14 14 14 14 14 14 14 14 14 14 14 14 14 14 14 13 13 13 13 13 13 14 14 14 14 14 15
12 13 13 14 14 14 14 14 14 14 14 14 13 13 13 13 13 14 14 14 14 14 14 13 13 13 13 13 13 13 13 12 12 12 12 12 13 13 13 13 13 13 14
11 11 12 12 13 13 13 13 13 13 13 13 13 13 13 13 13 13 13 13 13 13 13 13 13 13 12 12 12 12 12 12 12 11 11 12 12 12 12 12 12 13 13
10 10 11 11 12 12 13 13 13 13 13 13 13 13 12 12 12 12 12 13 13 13 13 12 12 12 12 12 12 11 11 11 11 11 11 11 11 11 11 12 12 12 12
10 10 10 10 11 11 12 12 13 13 13 13 12 12 12 12 12 12 12 12 12 12 12 12 12 11 11 11 11 11 11 10 10 10 10 10 11 11 11 11 11 11 12
10 10 10 10 10 10 11 12 12 12 12 12 12 12 12 12 11 11 11 12 12 12 12 12 11 11 11 11 11 11 11 10 10 10 10 10 10 10 10 11 11 11 11
9 9 9 9 10 10 10 11 11 12 12 12 12 12 11 11 11 11 11 11 11 11 11 12 11 11 11 11 11 11 11 11 11 10 10 10 10 10 10 10 10 10 11
9 9 9 9 9 9 10 10 11 11 12 12 12 11 11 11 11 11 11 11 11 11 11 11 11 11 11 11 11 11 11 11 11 10 11 10 10 10 10 10 10 10 10
9 9 9 9 9 9 9 10 10 10 11 11 11 11 11 11 11 11 11 11 11 10 11 11 11 11 11 11 11 11 11 11 11 10 11 10 10 10 9 9 9 9 9
8 8 8 9 9 9 9 9 10 10 10 11 11 11 11 11 10 11 11 11 11 10 10 10 10 10 10 11 11 11 11 11 11 11 11 11 10 10 9 9 9 9 9
Wind_Speed
3 3 3 3 5 5 3 3 4 5 6 6 7 8 9 10 11 11 8 17 22 23 23 23 22 22 22 23 23 22 23 23 24 24 25 26 26 26 25 25 24 24 23
1 3 4 4 4 5 5 4 6 6 6 5 7 8 9 9 8 7 8 13 22 25 26 25 24 24 24 24 24 24 24 24 24 25 26 27 27 27 27 27 26 25 25
0 1 4 5 4 5 5 5 6 6 7 8 8 9 9 9 9 8 10 9 13 22 26 26 26 26 26 26 26 25 25 25 25 26 27 28 28 28 28 28 28 27 27
2 2 4 4 3 3 4 5 6 6 6 6 7 8 8 8 10 9 10 11 11 13 20 27 27 27 27 27 27 26 26 25 26 26 27 27 28 28 29 29 29 28 28
3 2 3 4 4 4 5 6 4 3 5 6 7 8 8 9 10 12 12 11 11 13 13 20 28 28 28 28 27 27 27 26 26 26 27 27 28 28 29 29 29 29 29
2 3 4 4 5 5 5 4 6 6 5 6 9 9 7 8 9 10 13 12 11 14 15 14 17 22 28 28 28 28 28 28 27 27 27 27 27 28 29 29 29 30 29
2 2 4 5 5 4 5 6 6 7 7 6 6 7 8 9 10 10 11 11 12 12 11 11 12 12 15 27 28 27 28 29 27 27 27 27 27 27 28 29 29 30 30
0 3 2 4 5 5 6 6 5 5 7 6 6 7 7 7 7 10 9 10 12 10 11 13 9 10 10 12 18 27 28 29 28 27 26 25 25 26 27 28 29 29 29
2 2 2 4 4 5 5 5 6 7 6 6 6 5 5 5 7 7 9 7 8 8 9 8 10 10 13 11 12 21 27 28 27 26 25 23 23 24 25 26 28 29 29
5 4 4 4 4 4 6 6 4 5 6 7 6 6 7 9 7 7 8 8 9 7 8 9 8 7 8 8 9 13 21 22 22 22 21 20 20 21 23 25 27 28 28
6 7 6 5 4 5 6 5 6 6 5 7 7 7 8 8 8 8 10 9 8 6 6 6 5 4 3 3 3 6 13 16 17 16 16 16 17 17 19 23 25 26 27
5 7 7 5 4 5 5 5 6 7 7 7 7 7 8 7 7 7 9 9 9 8 6 4 2 2 1 3 6 8 8 8 8 8 9 10 11 14 16 18 21 23 25
5 4 3 3 4 5 6 6 6 7 7 8 7 7 8 8 8 9 9 9 9 8 6 4 2 1 2 4 7 12 10 9 7 6 5 4 5 6 8 11 15 17 19
7 6 4 3 5 6 7 6 6 7 7 7 9 9 8 8 8 8 9 9 9 8 5 4 3 3 3 5 8 12 10 11 10 9 8 6 4 2 2 3 4 6 9
8 8 7 6 6 7 7 7 7 7 7 7 7 8 7 7 7 8 8 8 9 8 6 2 1 3 4 5 8 9 10 13 14 14 13 13 12 10 8 6 5 4 3
8 9 9 9 8 8 8 8 8 7 6 6 6 7 7 7 7 7 8 8 9 8 5 1 0 2 4 7 10 11 13 17 16 16 16 16 16 16 15 14 14 14 13
8 8 9 10 10 9 9 8 8 8 7 6 6 7 7 8 7 6 7 6 6 6 5 2 1 3 6 9 9 10 11 11 12 17 17 18 18 18 18 18 18 18 19
9 9 9 10 11 11 9 9 9 7 6 6 5 6 7 7 7 6 5 5 4 4 6 6 4 4 6 9 10 10 9 10 11 17 18 19 19 19 19 19 20 20 20
10 10 10 10 11 11 10 10 9 7 6 4 2 4 5 6 6 5 4 2 1 2 5 7 6 5 5 7 10 10 11 9 10 14 17 18 19 19 19 19 19 20 20
11 10 10 10 11 11 12 11 9 7 5 3 1 1 2 3 4 4 2 1 2 5 7 8 8 6 6 7 8 9 9 7 8 9 11 15 18 19 19 18 18 18 18
13 11 10 9 10 11 12 10 8 9 6 4 3 2 2 3 4 3 2 2 4 6 8 8 8 7 7 7 7 6 9 8 7 7 8 7 8 8 10 14 16 16 16
11 10 10 9 10 12 11 9 8 7 6 7 6 5 4 4 4 6 9 9 7 8 8 7 7 8 7 7 7 8 8 8 5 5 6 6 6 7 6 9 12 14 15
9 9 8 9 9 9 9 9 11 7 7 8 8 7 6 5 5 5 8 11 12 11 9 7 9 8 7 6 7 7 6 6 6 6 7 8 7 7 5 9 12 14 14
9 9 9 9 8 9 8 8 10 8 7 9 9 8 7 7 6 6 7 9 9 8 8 8 8 7 7 6 6 7 7 7 6 6 7 8 7 6 7 6 10 12 13
8 9 10 10 8 7 6 7 8 7 7 9 10 10 10 8 9 10 9 10 10 9 13 15 13 12 11 9 6 5 6 6 7 5 5 5 7 6 5 4 6 9 10
9 10 11 9 8 6 4 6 7 6 7 8 9 10 11 11 11 10 9 9 10 9 10 10 9 8 8 8 7 4 3 5 6 4 4 5 7 6 4 4 5 6 6
Wind_Direction
243 290 307 311 299 293 272 243 260 261 251 250 254 253 251 246 246 243 218 193 193 198 204 207 211 218 222 224 224 224 223 222 221 220 219 220 220 220 219 219 219 219 219
218 273 282 275 272 281 291 285 279 275 270 263 261 260 265 271 268 264 244 207 201 203 207 211 213 218 223 225 224 223 222 220 219 219 219 220 221 221 220 220 219 219 219
132 291 280 270 263 272 269 264 264 258 259 257 254 255 255 259 266 266 266 253 223 214 213 214 215 217 220 224 224 223 220 218 218 217 218 219 220 220 220 220 219 219 219
31 329 291 292 321 296 273 261 252 255 257 261 260 259 257 253 255 254 252 248 244 238 223 220 219 218 218 222 223 223 220 218 217 218 218 219 219 219 220 220 220 219 219
356 322 315 306 312 296 291 300 320 308 293 282 274 257 244 243 246 250 244 239 236 236 233 220 217 217 218 221 223 223 220 218 217 218 219 219 219 218 219 220 220 219 219
10 22 312 334 344 313 310 328 328 313 293 276 279 280 261 247 242 243 245 242 237 237 235 231 217 219 220 220 221 223 222 220 217 218 219 220 220 219 218 219 219 220 219
27 335 295 335 312 306 333 320 311 309 302 293 289 288 273 255 243 236 234 236 236 235 235 228 217 210 212 221 222 222 223 222 219 218 219 220 220 219 218 218 219 219 220
92 289 14 329 320 333 302 289 307 304 302 305 304 301 295 284 267 257 233 230 233 232 232 233 219 211 212 205 215 221 225 225 221 219 219 219 220 220 219 219 219 219 219
208 249 282 282 303 296 302 335 303 295 305 309 295 288 295 292 313 301 300 277 249 232 229 229 223 216 218 212 200 210 219 223 222 221 220 219 220 220 221 221 220 219 219
215 214 227 247 266 285 296 291 329 335 306 296 296 287 278 289 295 298 298 297 288 266 246 236 233 224 219 213 202 192 207 216 217 220 221 221 221 221 222 223 223 221 220
217 208 211 216 240 260 273 291 295 285 285 286 292 297 296 294 279 274 285 292 296 290 272 248 232 225 217 204 180 176 191 203 208 213 218 223 226 227 227 227 226 225 223
236 214 205 196 222 251 273 281 280 280 276 278 280 280 280 280 282 277 279 285 287 291 300 306 283 233 152 101 101 109 140 163 176 189 207 221 228 231 232 231 230 229 228
280 260 232 193 234 259 267 267 269 271 274 274 273 272 271 271 272 272 273 278 281 284 290 305 322 6 92 100 100 103 107 123 136 156 170 194 217 227 231 233 232 231 232
309 325 324 275 255 259 268 271 276 275 275 277 281 279 274 269 266 266 265 269 276 274 270 275 353 31 69 88 100 99 99 102 105 103 101 101 106 128 166 187 200 211 221
314 321 317 298 280 270 267 270 271 275 280 281 285 286 283 276 268 264 262 256 254 262 262 261 343 32 78 91 101 96 98 96 96 94 91 88 85 83 86 94 106 123 144
325 317 307 299 287 275 267 265 270 271 278 285 285 291 296 292 282 271 263 257 245 241 246 233 171 102 90 98 94 98 100 96 91 92 90 88 85 81 78 78 80 80 82
313 309 304 296 287 277 268 262 264 271 278 285 295 304 306 304 299 289 275 263 249 228 219 198 133 109 103 106 102 103 101 96 93 92 91 89 87 83 78 75 75 76 76
300 298 300 296 286 279 274 267 263 268 275 288 301 313 315 315 314 307 294 277 251 211 178 161 138 116 110 114 113 107 102 99 97 95 94 90 87 83 80 76 75 74 74
284 288 290 291 287 283 277 269 258 254 258 272 298 314 316 322 322 321 314 298 262 167 151 142 134 121 111 112 111 106 105 104 101 100 93 89 86 84 82 80 79 77 76
274 276 278 281 285 282 275 268 258 245 234 220 217 288 325 337 340 337 341 4 118 123 126 131 130 125 118 112 115 119 116 114 113 108 97 97 92 85 82 82 81 79 78
267 267 273 281 287 284 273 267 251 240 212 188 172 147 87 58 41 32 60 81 111 119 123 127 129 127 128 131 128 128 126 124 116 125 124 117 104 92 84 80 82 84 83
265 268 272 280 288 292 300 292 260 239 199 180 169 153 137 106 84 73 73 77 90 116 124 126 127 133 135 137 137 141 138 137 133 152 133 119 107 95 87 89 95 93 88
283 283 284 285 286 292 282 265 252 235 196 180 168 164 155 136 127 108 92 82 75 75 95 119 126 129 130 140 141 137 140 135 125 148 130 116 109 100 99 110 113 105 96
282 284 279 277 280 292 279 254 250 243 202 176 167 164 152 146 145 136 115 98 86 77 92 99 103 106 107 109 115 126 125 113 110 129 133 123 127 120 118 124 133 121 109
275 274 273 268 270 283 281 253 243 239 202 176 165 158 152 148 146 136 121 111 102 93 84 93 97 100 101 103 112 124 132 130 131 140 140 126 136 132 131 136 152 141 123
269 270 269 265 261 263 273 243 232 241 206 175 159 153 153 145 142 137 130 123 116 114 112 106 100 105 105 96 89 102 140 142 132 122 133 132 148 146 135 146 152 159 142
Height
1521 1521 1521 1521 1521 1522 1522 1522 1521 1521 1521 1521 1522 1522 1523 1523 1522 1523 1523 1523 1524 1525 1526 1528 1528 1529 1530 1532 1533 1535 1537 1539 1541 1544 1546 1549 1551 1553 1555 1557 1559 1561 1563
1518 1517 1517 1517 1517 1517 1517 1516 1516 1516 1516 1516 1516 1516 1517 1517 1517 1517 1518 1519 1518 1519 1520 1521 1522 1524 1525 1526 1528 1530 1532 1534 1536 1539 1541 1544 1546 1548 1550 1553 1555 1557 1559
1515 1514 1514 1514 1513 1513 1512 1512 1512 1511 1510 1511 1510 1511 1511 1511 1511 1512 1512 1513 1513 1513 1514 1515 1516 1517 1519 1521 1523 1525 1527 1529 1531 1533 1536 1538 1541 1543 1545 1548 1550 1552 1554
1512 1512 1511 1511 1510 1509 1509 1508 1507 1507 1506 1506 1505 1505 1505 1505 1504 1504 1505 1505 1506 1507 1507 1508 1510 1511 1513 1514 1516 1519 1521 1523 1526 1528 1530 1533 1535 1538 1540 1542 1545 1547 1549
1510 1509 1508 1508 1507 1506 1506 1506 1505 1504 1502 1502 1501 1500 1499 1498 1498 1498 1498 1498 1499 1500 1501 1502 1503 1505 1506 1508 1510 1512 1515 1517 1519 1522 1525 1527 1529 1532 1534 1537 1539 1541 1544
1507 1506 1506 1505 1504 1503 1503 1502 1501 1500 1499 1498 1497 1496 1494 1493 1492 1492 1492 1492 1492 1493 1494 1495 1495 1497 1499 1501 1503 1506 1508 1510 1513 1516 1518 1521 1523 1526 1528 1531 1533 1536 1538
1505 1504 1503 1502 1501 1501 1500 1499 1498 1496 1495 1495 1493 1491 1489 1488 1487 1486 1485 1485 1485 1486 1488 1488 1489 1490 1492 1494 1496 1498 1501 1504 1506 1508 1511 1514 1517 1519 1522 1524 1527 1529 1532
1502 1502 1501 1499 1499 1498 1496 1496 1495 1493 1492 1492 1491 1488 1485 1484 1482 1481 1480 1479 1479 1480 1480 1482 1483 1484 1486 1487 1489 1491 1494 1496 1499 1501 1504 1507 1510 1512 1515 1518 1520 1523 1525
1499 1499 1497 1496 1495 1494 1494 1493 1492 1490 1489 1488 1488 1488 1485 1480 1478 1476 1475 1474 1473 1473 1473 1475 1477 1478 1479 1480 1482 1483 1486 1489 1492 1495 1497 1500 1503 1505 1508 1511 1513 1516 1518
1496 1495 1494 1493 1492 1491 1490 1490 1490 1487 1486 1484 1483 1483 1483 1480 1478 1472 1470 1469 1469 1468 1469 1470 1471 1472 1473 1473 1474 1476 1478 1481 1484 1487 1490 1493 1496 1498 1501 1503 1506 1508 1511
1493 1492 1491 1490 1489 1488 1487 1486 1485 1483 1481 1480 1479 1478 1476 1475 1474 1472 1467 1465 1465 1464 1464 1464 1464 1466 1467 1467 1468 1469 1472 1475 1478 1481 1484 1487 1489 1491 1493 1495 1498 1500 1503
1490 1489 1487 1486 1485 1484 1483 1482 1480 1479 1477 1476 1474 1472 1471 1470 1468 1467 1465 1462 1461 1460 1460 1459 1459 1460 1461 1462 1463 1464 1465 1469 1472 1475 1477 1480 1482 1484 1486 1488 1490 1492 1495
1486 1486 1484 1482 1481 1480 1479 1478 1476 1474 1473 1471 1469 1467 1465 1464 1463 1462 1460 1458 1457 1455 1455 1455 1454 1454 1456 1456 1457 1460 1462 1464 1467 1469 1471 1473 1475 1476 1478 1480 1482 1484 1487
1480 1480 1479 1478 1477 1476 1475 1474 1472 1470 1468 1466 1464 1462 1460 1458 1457 1456 1455 1454 1451 1450 1450 1450 1450 1451 1451 1451 1453 1456 1458 1460 1462 1464 1465 1467 1469 1470 1471 1473 1475 1477 1479
1474 1473 1472 1472 1471 1471 1470 1469 1467 1465 1463 1461 1459 1456 1454 1452 1450 1449 1448 1447 1447 1445 1445 1445 1446 1447 1447 1448 1449 1452 1454 1456 1458 1459 1461 1462 1464 1465 1466 1467 1468 1470 1472
1467 1466 1466 1465 1465 1465 1464 1464 1462 1461 1458 1456 1453 1451 1448 1446 1443 1442 1440 1439 1440 1440 1440 1440 1442 1444 1444 1445 1447 1449 1451 1453 1455 1457 1458 1459 1461 1461 1462 1462 1463 1464 1466
1460 1459 1459 1458 1458 1458 1458 1457 1456 1455 1453 1451 1448 1446 1443 1440 1437 1435 1434 1433 1432 1433 1434 1436 1438 1440 1442 1443 1445 1447 1450 1452 1454 1456 1457 1459 1460 1460 1461 1461 1461 1462 1463
1453 1452 1451 1450 1450 1450 1451 1450 1450 1449 1448 1446 1443 1441 1438 1436 1433 1430 1428 1427 1426 1427 1429 1431 1435 1437 1440 1442 1444 1447 1449 1452 1454 1456 1458 1459 1460 1460 1461 1461 1461 1462 1462
1445 1444 1443 1443 1442 1442 1443 1443 1443 1443 1442 1441 1439 1436 1434 1431 1429 1426 1424 1422 1422 1423 1425 1428 1431 1435 1438 1441 1444 1446 1449 1452 1455 1457 1459 1460 1461 1462 1462 1463 1463 1463 1463
1439 1437 1436 1435 1435 1435 1435 1435 1436 1436 1436 1435 1434 1432 1431 1428 1426 1423 1421 1420 1420 1420 1423 1426 1430 1434 1437 1440 1443 1446 1450 1453 1456 1458 1460 1462 1463 1464 1464 1465 1465 1466 1466
1434 1432 1431 1429 1428 1428 1428 1428 1429 1429 1430 1430 1429 1429 1428 1426 1424 1422 1420 1419 1419 1420 1422 1425 1429 1433 1437 1440 1444 1447 1450 1454 1458 1460 1462 1464 1465 1466 1467 1468 1468 1469 1469
1429 1427 1426 1424 1423 1422 1421 1420 1422 1422 1423 1425 1425 1425 1425 1424 1423 1422 1421 1420 1421 1421 1423 1425 1430 1433 1437 1441 1445 1449 1452 1455 1459 1463 1464 1466 1468 1469 1470 1470 1471 1471 1471
1423 1422 1420 1419 1417 1415 1414 1413 1414 1416 1417 1419 1420 1421 1422 1422 1423 1423 1423 1422 1423 1424 1426 1428 1431 1434 1438 1442 1446 1450 1453 1457 1459 1463 1465 1467 1470 1471 1472 1473 1474 1474 1473
1416 1415 1414 1413 1411 1409 1408 1407 1407 1409 1411 1414 1415 1417 1419 1421 1422 1423 1424 1424 1425 1427 1429 1431 1434 1437 1441 1445 1448 1452 1455 1458 1462 1465 1467 1469 1472 1473 1475 1475 1476 1476 1475
1409 1408 1407 1406 1405 1403 1402 1401 1402 1403 1406 1409 1411 1414 1416 1419 1421 1423 1424 1425 1427 1429 1432 1435 1437 1441 1444 1448 1451 1454 1457 1460 1463 1467 1469 1470 1473 1474 1476 1477 1478 1478 1478
1402 1401 1400 1400 1399 1398 1397 1396 1396 1398 1401 1404 1407 1411 1414 1417 1420 1423 1425 1426 1428 1431 1434 1437 1441 1444 1447 1450 1453 1456 1458 1461 1464 1467 1470 1471 1473 1475 1477 1479 1479 1480 1480